Location: Clanezzo
(45.7500°N, 9.6000°E)
Time: 22:56:18
(UTC+00:00)

SPROUT - Pass Details

Date: 09 July 2022
Orbit: 588 x 598 km, 97.9° (Epoch: 07 August)

Event Time Altitude Azimuth Distance (km) Brightness Sun altitude
Exits shadow 22:33:17 - 89° (E) 2,137 ? -20.9°
Reaches altitude 10° 22:34:42 10° 71° (ENE) 1,923 ? -21.0°
Maximum altitude 22:35:38 11° 58° (ENE) 1,881 ? -21.0°
Drops below altitude 10° 22:36:35 10° 45° (NE) 1,927 ? -21.0°
Sets 22:40:30 0° 8° (N) 2,838 ? -21.2°
